Wind_Speed
15 16 17 16 17 17 17 17 18 18 18 18 19 19 19 19 20 20 20 20 20 20 21 22 22 22 23 22 23 23 23 23 23 23 24 25 25 25 24 24 24 23 23 23
16 16 17 17 17 17 18 18 18 18 18 18 19 20 20 20 20 20 20 21 21 21 21 23 24 24 25 24 23 23 23 23 23 24 24 25 25 25 25 25 25 25 25 25
17 17 17 17 17 17 17 17 18 18 17 18 19 20 20 21 21 21 21 21 22 23 23 23 24 24 25 25 24 24 24 25 25 25 25 26 26 27 27 26 26 26 27 27
18 18 18 18 17 17 18 18 18 18 18 18 19 20 20 20 20 21 21 22 22 22 23 24 24 25 25 26 26 26 26 27 27 26 26 27 27 27 27 28 28 28 28 28
19 20 20 18 18 18 18 17 18 18 19 19 19 20 20 20 21 21 22 23 23 23 24 24 24 25 25 26 27 27 27 28 28 28 28 28 28 27 28 28 29 29 29 30
20 20 20 19 19 18 19 18 18 19 19 20 20 20 20 21 22 23 23 24 24 24 25 25 25 25 26 26 27 28 28 28 28 28 29 29 29 29 29 29 30 30 30 31
21 21 21 20 20 20 20 19 19 20 20 20 20 21 21 22 23 23 24 25 25 25 26 26 26 27 27 27 28 28 28 29 29 29 30 30 30 30 31 31 31 31 31 32
21 22 22 21 21 20 20 20 20 21 21 20 21 21 22 23 23 24 24 25 25 26 26 27 28 28 28 28 28 29 29 29 29 29 30 30 31 31 31 31 31 32 32 32
23 23 22 22 22 22 21 21 21 22 22 22 22 22 22 23 24 24 24 25 25 26 26 27 28 29 29 29 29 29 29 29 30 30 30 30 31 31 31 31 31 31 31 32
24 24 24 23 23 24 23 23 23 22 22 23 23 23 23 24 24 24 25 25 25 26 26 26 27 28 29 30 30 30 29 29 30 30 30 31 31 31 31 31 31 31 31 32
24 24 24 24 24 24 24 24 23 23 23 23 23 23 24 24 25 25 25 26 26 26 27 27 27 28 28 29 29 30 29 29 30 31 31 31 31 31 31 31 31 31 32 32
23 24 24 23 23 23 24 24 24 24 25 25 25 25 25 25 25 25 26 26 26 27 27 27 27 27 28 29 29 29 30 30 31 31 31 31 31 30 31 31 32 32 32 32
24 24 23 23 23 24 24 25 25 25 26 26 26 27 26 26 26 26 27 27 27 27 27 27 26 27 27 28 28 29 30 31 31 31 31 31 31 31 31 31 31 31 31 31
24 24 24 24 24 24 24 25 26 26 27 27 27 27 27 27 27 27 27 28 28 28 27 27 27 27 27 28 28 29 30 30 31 31 31 32 32 33 32 32 32 32 31 31
25 25 25 25 25 25 26 26 26 27 27 27 27 28 28 28 27 28 28 28 28 28 28 28 28 28 28 28 29 30 30 30 31 31 31 32 33 33 33 33 33 33 32 32
25 26 26 26 26 26 26 26 26 27 27 27 27 27 28 28 28 28 28 28 28 29 29 29 29 29 29 29 30 30 30 30 31 31 31 31 32 33 33 33 33 33 33 33
26 26 26 26 26 26 26 26 26 26 26 27 27 27 27 27 27 28 28 28 29 29 30 30 30 30 30 30 30 30 30 30 31 31 31 32 31 31 32 32 32 32 32 33
25 25 26 26 26 26 26 25 25 25 25 25 26 27 27 28 28 28 28 29 30 30 31 31 31 31 31 31 31 31 31 31 31 32 32 32 32 32 32 32 32 32 32 33
25 25 26 26 26 26 25 25 24 24 25 25 26 27 27 28 29 29 29 30 30 31 31 32 32 32 32 32 32 32 32 32 32 32 32 32 32 32 32 33 33 33 33 34
26 26 26 26 26 26 26 25 25 25 25 26 26 27 27 28 29 29 30 30 30 30 31 31 32 33 33 33 33 34 34 34 34 34 34 33 33 32 32 32 33 34 34 35
26 26 26 26 26 26 26 26 26 26 26 27 27 27 28 29 29 29 29 29 29 30 31 31 32 32 33 33 34 34 34 34 34 34 34 34 34 34 33 33 33 34 34 34
26 26 26 26 26 26 27 27 27 28 28 28 28 29 29 29 30 29 29 29 30 31 31 31 31 31 32 32 33 33 33 34 34 34 34 34 34 34 34 34 34 34 34 33
25 25 25 25 26 27 27 28 29 29 29 29 29 30 30 30 30 30 30 30 31 31 31 31 31 32 33 33 34 34 34 34 34 34 34 34 34 34 34 35 35 35 35 35
25 24 25 25 26 27 27 28 29 29 30 30 30 30 30 30 30 31 31 30 31 31 31 31 32 33 34 34 34 34 34 35 34 34 35 35 35 35 36 36 36 37 37 37
25 25 25 26 26 27 28 28 29 29 30 31 31 31 31 31 31 31 31 31 31 31 32 32 33 33 34 34 34 34 34 34 35 35 35 36 36 36 36 36 36 37 37 37
25 26 26 27 27 27 28 28 29 29 30 30 31 31 31 31 31 31 31 31 31 31 32 32 33 34 34 34 34 34 34 34 35 35 36 36 36 36 36 36 36 36 36 37
27 27 27 28 28 28 28 29 29 30 30 31 31 31 31 32 32 32 32 32 32 32 33 33 33 33 33 33 33 33 33 33 34 34 34 34 35 35 35 35 36 36 36 36
Wind_Direction
277 278 277 276 275 275 275 276 276 277 274 274 275 273 272 273 273 274 274 273 271 269 267 267 267 266 266 266 268 269 269 269 269 268 268 267 267 267 267 268 268 268 268 269
279 279 278 278 277 276 276 277 278 278 277 277 275 274 273 274 273 273 273 273 273 272 269 269 269 269 269 266 266 268 269 269 270 271 270 269 269 268 267 268 268 268 268 269
279 280 279 278 278 277 277 279 279 278 278 277 277 276 274 273 273 273 273 273 273 272 271 271 270 271 270 268 267 268 270 270 270 272 272 271 271 268 267 267 268 268 269 269
279 279 277 281 281 280 280 279 279 278 278 279 279 277 275 274 274 273 274 274 273 273 272 271 271 269 269 269 269 269 269 269 268 269 270 271 272 269 268 267 266 267 268 269
277 278 279 280 281 282 281 280 279 278 278 279 279 277 277 276 275 275 275 275 274 273 271 272 271 271 271 270 270 270 269 268 268 269 269 271 270 269 268 268 268 268 268 269
276 277 278 281 282 282 281 280 280 280 280 281 281 279 279 277 277 276 276 276 275 274 272 271 271 272 272 273 273 271 271 271 270 269 269 270 270 269 269 269 270 270 270 270
274 276 278 280 282 283 282 283 283 280 280 281 281 281 279 277 277 278 278 277 277 276 275 273 272 272 273 274 274 273 272 272 271 269 269 269 270 271 270 271 272 271 271 271
272 274 277 279 281 282 283 283 282 280 280 280 281 281 280 278 279 280 280 279 278 278 277 276 275 274 274 275 274 274 273 271 271 270 269 270 270 270 271 273 273 272 272 272
273 274 277 279 280 280 280 282 282 281 280 280 281 281 281 282 283 283 282 282 282 280 279 279 278 277 277 276 274 273 272 272 271 271 271 271 272 272 273 273 274 274 273 272
274 275 276 277 277 279 280 282 283 282 281 280 282 283 283 284 285 284 284 284 283 282 282 281 281 280 278 276 275 274 273 273 272 272 272 273 273 273 273 274 276 275 273 272
274 276 276 277 278 279 280 281 281 280 280 282 283 284 284 284 283 284 284 284 283 283 283 283 282 281 280 278 276 275 275 275 275 274 272 273 273 273 274 274 276 277 275 272
275 277 277 278 279 279 278 279 280 281 282 282 283 284 284 284 284 285 286 286 286 285 285 285 284 284 283 281 279 278 277 277 277 276 274 273 273 273 274 275 276 276 275 273
275 276 277 278 279 279 280 279 279 281 282 282 283 283 284 284 284 285 286 286 286 285 285 285 285 285 285 284 282 281 280 279 278 278 276 274 272 273 274 275 276 276 274 273
274 276 276 278 279 280 281 281 281 281 282 283 283 284 284 284 284 284 285 285 285 284 284 285 285 285 284 284 283 283 282 281 280 279 278 277 275 274 274 274 274 274 274 274
274 275 277 279 279 279 281 282 282 283 282 282 283 284 284 283 284 284 285 285 284 283 284 285 286 285 285 285 284 283 283 282 281 280 280 279 277 276 275 274 274 273 273 274
275 276 277 279 281 282 282 282 283 284 283 282 283 284 284 284 285 285 285 284 284 283 284 285 286 286 286 286 285 285 284 283 282 281 281 281 279 277 277 275 274 274 273 273
275 277 278 280 281 282 283 283 283 284 284 283 283 284 284 284 285 285 285 285 284 284 284 285 286 287 287 287 286 286 285 285 283 282 282 282 281 279 278 276 275 274 273 273
276 277 279 280 282 284 284 285 284 284 284 283 283 283 284 286 287 287 287 286 285 284 284 285 285 286 287 287 286 286 286 285 285 284 283 281 280 279 278 277 276 275 274 273
278 278 279 279 281 282 284 285 286 286 285 285 285 285 285 286 287 288 289 288 287 286 285 284 284 284 285 285 286 285 285 285 285 284 283 281 280 279 278 277 277 276 275 274
278 278 279 280 281 282 283 285 286 286 286 286 286 285 286 286 288 288 289 288 288 287 286 286 285 285 285 285 285 285 284 284 284 284 283 281 280 279 278 278 277 277 276 276
277 277 278 280 281 282 282 283 284 285 285 286 286 286 286 288 289 290 289 289 290 290 289 288 287 287 287 287 287 286 284 284 284 284 283 282 281 279 279 278 278 277 277 277
279 279 280 280 281 282 282 283 284 284 284 285 286 287 288 290 291 290 290 290 291 291 290 290 289 289 289 289 289 287 285 284 284 284 283 283 283 281 279 279 279 278 278 278
280 280 279 280 281 282 283 284 284 284 284 285 286 287 289 290 291 292 292 292 292 292 291 291 291 290 290 290 289 287 286 284 284 284 283 283 283 282 280 279 278 278 278 278
280 280 281 282 283 283 284 285 285 284 284 285 286 287 288 289 290 291 292 293 293 293 293 293 293 292 291 291 289 287 286 285 285 284 284 284 284 283 282 280 279 279 279 279
281 282 283 283 283 284 284 284 284 285 286 286 286 287 288 288 289 291 292 293 294 294 295 294 293 292 291 290 289 288 287 286 285 285 285 284 283 284 283 282 281 280 280 280
283 283 284 285 285 286 287 287 287 287 287 287 286 287 288 289 290 292 293 294 294 295 295 295 294 293 292 291 289 288 287 287 286 286 286 286 285 284 283 282 282 281 281 281
284 284 284 284 285 286 288 288 289 290 290 290 289 289 289 290 291 292 292 294 295 296 296 296 295 294 293 292 291 290 289 289 288 287 287 287 286 285 284 283 282 282 282 283
Height
5809 5808 5807 5806 5806 5805 5804 5804 5804 5804 5804 5804 5802 5802 5801 5801 5801 5800 5800 5799 5799 5799 5798 5798 5797 5797 5797 5797 5796 5796 5796 5795 5795 5795 5795 5795 5795 5795 5795 5795 5795 5795 5795 5795
5803 5802 5801 5801 5801 5800 5799 5799 5798 5798 5798 5798 5796 5796 5795 5795 5795 5794 5794 5793 5793 5793 5792 5792 5791 5791 5790 5790 5790 5790 5789 5789 5789 5789 5788 5788 5788 5788 5788 5788 5788 5788 5788 5788
5798 5797 5796 5795 5796 5795 5794 5794 5793 5792 5793 5791 5790 5790 5789 5789 5788 5788 5787 5787 5786 5786 5785 5785 5784 5784 5783 5783 5783 5783 5782 5782 5782 5781 5781 5781 5781 5780 5781 5780 5780 5780 5780 5780
5792 5792 5790 5793 5790 5789 5788 5788 5787 5786 5786 5785 5784 5783 5782 5782 5781 5781 5780 5780 5779 5779 5778 5778 5777 5777 5776 5776 5775 5775 5775 5775 5774 5774 5774 5773 5773 5772 5772 5772 5772 5772 5772 5772
5786 5785 5784 5785 5784 5783 5782 5782 5781 5781 5780 5779 5778 5777 5776 5775 5775 5774 5773 5773 5772 5771 5771 5770 5770 5769 5769 5768 5767 5767 5767 5766 5766 5766 5765 5765 5764 5764 5764 5764 5763 5763 5763 5763
5780 5779 5779 5780 5778 5777 5777 5776 5776 5774 5773 5773 5772 5771 5771 5769 5768 5767 5766 5765 5764 5764 5763 5762 5762 5761 5760 5760 5759 5758 5758 5758 5757 5757 5757 5756 5755 5755 5755 5754 5754 5754 5754 5753
5773 5773 5772 5773 5772 5771 5771 5771 5769 5768 5767 5766 5765 5764 5764 5762 5760 5759 5759 5758 5757 5756 5755 5754 5753 5753 5752 5751 5750 5750 5749 5749 5748 5748 5747 5747 5746 5746 5745 5745 5744 5744 5744 5743
5767 5766 5768 5766 5765 5765 5764 5763 5761 5760 5760 5759 5758 5757 5755 5754 5753 5752 5751 5750 5749 5747 5746 5745 5744 5744 5743 5742 5742 5741 5740 5740 5739 5738 5738 5737 5737 5736 5735 5735 5734 5734 5733 5733
5761 5762 5760 5759 5758 5757 5756 5755 5754 5753 5753 5752 5751 5749 5748 5747 5745 5744 5743 5741 5740 5739 5738 5737 5736 5735 5734 5733 5732 5731 5731 5730 5730 5729 5728 5728 5727 5726 5725 5725 5724 5723 5722 5722
5753 5753 5752 5751 5750 5750 5749 5748 5747 5746 5745 5744 5743 5742 5740 5739 5737 5736 5734 5733 5732 5730 5729 5728 5727 5725 5724 5723 5722 5721 5721 5720 5720 5719 5718 5718 5717 5716 5715 5715 5714 5713 5712 5711
5745 5745 5744 5744 5743 5742 5741 5740 5739 5738 5737 5736 5735 5734 5732 5731 5729 5728 5726 5725 5723 5722 5720 5719 5717 5716 5715 5713 5712 5712 5711 5710 5710 5709 5708 5707 5707 5706 5705 5705 5704 5703 5702 5701
5738 5737 5737 5737 5736 5735 5733 5733 5732 5731 5729 5728 5727 5726 5724 5722 5721 5719 5718 5716 5715 5713 5711 5710 5708 5707 5705 5704 5703 5702 5701 5700 5699 5698 5697 5697 5696 5696 5695 5694 5693 5692 5691 5690
5730 5729 5729 5728 5727 5726 5725 5724 5723 5722 5721 5720 5719 5717 5715 5714 5712 5711 5709 5708 5706 5704 5703 5701 5699 5698 5696 5694 5693 5692 5691 5690 5689 5688 5687 5686 5686 5685 5685 5684 5683 5681 5681 5680
5721 5721 5721 5720 5719 5718 5717 5716 5715 5714 5712 5711 5709 5708 5706 5705 5703 5702 5700 5699 5697 5695 5694 5692 5690 5689 5687 5685 5684 5682 5681 5680 5679 5677 5676 5675 5675 5674 5673 5673 5672 5671 5670 5669
5714 5713 5713 5712 5711 5710 5709 5707 5706 5705 5703 5702 5700 5699 5697 5696 5695 5693 5691 5689 5688 5686 5685 5683 5681 5679 5678 5676 5674 5673 5671 5670 5668 5667 5666 5665 5664 5663 5662 5662 5661 5660 5660 5659
5706 5705 5704 5703 5702 5701 5700 5699 5697 5696 5694 5693 5691 5690 5688 5687 5685 5684 5682 5680 5678 5677 5675 5673 5672 5670 5668 5666 5665 5663 5661 5660 5658 5657 5655 5654 5653 5652 5651 5650 5650 5649 5649 5648
5697 5696 5696 5695 5694 5692 5691 5690 5688 5687 5685 5683 5682 5681 5679 5678 5676 5674 5673 5671 5669 5667 5665 5664 5662 5660 5658 5656 5654 5653 5651 5649 5648 5646 5645 5643 5642 5641 5640 5639 5638 5638 5637 5636
5688 5688 5687 5686 5685 5684 5682 5681 5679 5678 5676 5674 5673 5671 5670 5669 5667 5665 5663 5661 5659 5657 5655 5654 5652 5650 5648 5646 5644 5642 5641 5639 5637 5635 5634 5633 5631 5630 5629 5628 5627 5626 5626 5625
5680 5679 5678 5677 5676 5675 5673 5672 5670 5669 5667 5666 5664 5663 5661 5660 5658 5656 5654 5651 5649 5647 5645 5643 5641 5639 5637 5636 5633 5632 5630 5628 5626 5625 5623 5622 5620 5619 5617 5617 5616 5615 5614 5613
5672 5671 5670 5669 5667 5666 5665 5663 5662 5661 5659 5657 5656 5654 5652 5651 5648 5646 5644 5641 5639 5636 5634 5632 5630 5628 5626 5625 5622 5620 5619 5617 5615 5613 5612 5610 5608 5607 5606 5605 5604 5603 5602 5601
5663 5662 5661 5660 5659 5658 5656 5655 5654 5652 5650 5649 5647 5645 5643 5641 5639 5636 5634 5631 5629 5626 5624 5621 5619 5617 5615 5613 5611 5609 5607 5605 5603 5601 5600 5598 5596 5595 5594 5593 5592 5591 5590 5589
5654 5653 5652 5651 5650 5649 5648 5646 5645 5643 5641 5640 5638 5636 5634 5632 5629 5627 5624 5622 5619 5617 5614 5611 5608 5606 5604 5601 5599 5597 5595 5593 5591 5589 5588 5586 5584 5583 5581 5580 5579 5578 5577 5576
5645 5645 5644 5643 5642 5640 5639 5637 5635 5634 5632 5630 5628 5626 5624 5622 5620 5617 5615 5612 5609 5606 5603 5600 5598 5595 5592 5590 5587 5585 5583 5581 5579 5577 5575 5574 5572 5570 5569 5568 5567 5566 5565 5563
5637 5636 5635 5634 5633 5631 5630 5628 5626 5624 5622 5620 5618 5616 5614 5612 5610 5607 5604 5602 5599 5595 5592 5590 5587 5584 5581 5578 5575 5573 5571 5569 5567 5565 5563 5561 5559 5558 5556 5555 5554 5552 5551 5550
5628 5627 5626 5625 5623 5622 5620 5619 5617 5615 5613 5611 5609 5606 5604 5602 5599 5597 5594 5591 5588 5585 5582 5579 5575 5572 5569 5566 5563 5561 5558 5556 5554 5552 5550 5548 5547 5545 5543 5542 5541 5539 5538 5537
5619 5618 5617 5616 5614 5612 5611 5609 5607 5605 5603 5601 5599 5596 5594 5591 5589 5586 5583 5580 5577 5574 5571 5567 5564 5560 5557 5554 5551 5549 5546 5544 5542 5540 5538 5535 5534 5532 5531 5529 5527 5526 5524 5523
5610 5609 5607 5606 5604 5602 5601 5599 5597 5595 5593 5590 5588 5586 5583 5581 5578 5575 5572 5569 5566 5563 5559 5556 5552 5549 5546 5543 5540 5537 5534 5532 5529 5527 5525 5523 5521 5519 5517 5516 5514 5513 5511 5510